Location: Knowlton
(51.2333°N, 1.2667°E)
Time: 04:16:48
(UTC+00:00)

Cosmos 1606 Rocket - Pass Details

Date: 18 April 2021
Orbit: 602 x 633 km, 82.5° (Epoch: 06 May)

Event Time Altitude Azimuth Distance (km) Brightness Sun altitude
Rises 19:53:38 0° 201° (SSW) 2,877 6.9 -8.9°
Reaches altitude 10° 19:55:54 10° 205° (SSW) 1,972 6.1 -9.3°
Maximum altitude 20:00:11 55° 284° (WNW) 739 4.4 -9.8°
Drops below altitude 10° 20:04:28 10° 3° (N) 1,971 6.6 -10.4°
Sets 20:06:44 0° 8° (N) 2,876 7.3 -10.7°
